Flag for Germany Weather past 2 weeks in Weiden in der Oberpfalz, Bavaria, Germany

Now
21 °F

Light snow. Ice fog.


Feels Like: 14 °F
Forecast: 11 / 25 °F
Wind: 5 mph from Southwest

Location: Weiden

Current Time: Dec 29, 2014 at 8:25:27 AM

Latest Report: Dec 29, 2014 at 8:00 AM


Visibility: 1 mi

Pressure: 30.35 "Hg

Humidity: 93%

Dew point: 19 °F

Location of Weiden in der OberpfalzLocation

Historic Weather in Weiden in der Oberpfalz — Graph

°F

Weiden in der Oberpfalz temperature yesterday

Maximum temperature yesterday: 25 °F (at 12:00 AM)
Minimum temperature yesterday: 14 °F (at 11:00 PM)
Average temperature yesterday: 22 °F

Past Weeks' High & Low Weather Summary

 TemperatureHumidityPressure
High51 °F (Dec 19, 12:00 AM)99% (Dec 17, 10:00 PM)30.50 "Hg (Dec 17, 10:00 PM)
Low14 °F (Dec 28, 11:00 PM)45% (Dec 28, 2:00 PM)29.61 "Hg (Dec 27, 7:00 PM)
Average38 °F87%30.11 "Hg
* Reported Dec 14 7:00 AM — Dec 29 7:00 AM, Weiden in der Oberpfalz, Weather by CustomWeather, © 2014

Note: Actual official high and low records may vary slightly from our data, if they occured in-between our weather recording intervals... More about our weather records

Advertising

Weiden in der Oberpfalz weather history for previous 24 hours

 ConditionsComfort  
Time TempWeatherWind HumidityBarometerVisibility
7:00 AM
Dec 29
22 °FLight snow. Ice fog.5 mph86%30.36 "Hg1 mi
6:00 AM22 °FOvercast.5 mph82%30.39 "Hg10 mi
5:00 AM21 °FOvercast.2 mph86%30.43 "Hg7 mi
4:00 AM19 °FOvercast.1 mph88%30.45 "Hg6 mi
3:00 AM18 °FOvercast.2 mph90%30.46 "Hg6 mi
2:00 AM17 °FPassing clouds.2 mph90%30.48 "Hg5 mi
1:00 AM16 °FOvercast.1 mph88%30.49 "Hg4 mi
12:00 AM14 °FFog.1 mph88%30.50 "Hg4 mi
11:00 PM
Dec 28
14 °FFog.1 mph89%30.48 "Hg4 mi
10:00 PM14 °FFog.2 mph85%30.47 "Hg4 mi
9:00 PM15 °FPassing clouds.1 mph79%30.47 "Hg6 mi
8:00 PM15 °FClear.2 mph78%30.43 "Hg6 mi
7:00 PM17 °FClear.3 mph71%30.40 "Hg6 mi
6:00 PM18 °FClear.5 mph66%30.35 "Hg6 mi
5:00 PM19 °FClear.2 mph64%30.29 "Hg7 mi
4:00 PM21 °FCold.2 mph60%30.23 "Hg6 mi
3:00 PM22 °FCold.5 mph59%30.19 "Hg7 mi
2:00 PM24 °FSunny.7 mph45%30.14 "Hg13 mi
1:00 PM24 °FSunny.6 mph52%30.10 "Hg9 mi
12:00 PM24 °FPassing clouds.6 mph57%30.07 "Hg9 mi
11:00 AM24 °FScattered clouds.7 mph66%30.03 "Hg7 mi
10:00 AM25 °FPartly sunny.8 mph72%29.98 "Hg7 mi
9:00 AM25 °FOvercast.8 mph75%29.94 "Hg6 mi
8:00 AM25 °FOvercast.10 mph80%29.89 "Hg5 mi
Weather by CustomWeather, © 2014

See weather overviewHow to use our weather pages